Date String (YYYY-MM-DD hh:mm:ss) UTC,Instrument flags,Ambient pressure (hPa),Sample flow (lpm),Bypass flow (lpm),Sample temperature (°C),Ambient temperature (°C),ASC tube jacket temperature (°C),LED temperature (°C),Box temperature (°C),Sample RH (%),Span deviation,Mass concentration (μg/m³),Mass concentration (μg/m³),Mass concentration (μg/m³)
DateTimeUTC,F1_M11,P_M11,Q1_M11,Q2_M11,T1_M11,T2_M11,T3_M11,T4_M11,T5_M11,U1_M11,ZSPAN_M11,X0_M11,X2_M11,X1_M11
2022-07-20 05:00:00,,0828.8,5.00,0.00,29.2,27.3,00.0,38.0,31.1,25.5,0000.0,0014.76,0005.50,0004.12
2022-07-20 05:01:00,,0829.0,5.01,0.00,29.2,27.5,00.0,38.0,31.1,25.4,0000.0,0014.40,0005.40,0004.07
2022-07-20 05:02:00,,0828.6,4.98,0.00,29.2,27.7,00.0,38.0,31.2,25.3,0000.0,0013.32,0005.32,0004.05
2022-07-20 05:03:00,,0828.6,5.01,0.00,29.3,27.9,00.0,38.0,31.2,25.1,0000.0,0012.65,0005.30,0004.06
2022-07-20 05:04:00,,0828.5,5.01,0.00,29.3,28.0,00.0,38.0,31.3,24.9,0000.0,0011.08,0005.29,0004.06
2022-07-20 05:05:00,,0828.5,5.00,0.00,29.3,28.1,00.0,38.0,31.3,24.6,0000.0,0010.48,0005.24,0004.07
2022-07-20 05:06:00,,0828.5,5.00,0.00,29.4,28.3,00.0,38.0,31.4,24.5,0000.0,0010.05,0005.23,0004.07
2022-07-20 05:07:00,,0828.4,5.00,0.00,29.4,28.4,00.0,38.1,31.4,24.3,0000.0,0010.30,0005.25,0004.08
2022-07-20 05:08:00,,0828.4,5.00,0.00,29.4,28.2,00.0,38.0,31.4,24.2,0000.0,0010.38,0005.27,0004.10
2022-07-20 05:09:00,,0828.4,5.00,0.00,29.4,27.5,00.0,38.0,31.3,24.4,0000.0,0010.66,0005.31,0004.12
2022-07-20 05:10:00,,0828.4,4.99,0.00,29.4,27.0,00.0,38.0,31.2,24.5,0000.0,0010.82,0005.34,0004.16
2022-07-20 05:11:00,,0828.4,5.01,0.00,29.3,26.9,00.0,38.0,31.1,24.5,0000.0,0010.50,0005.34,0004.18
2022-07-20 05:12:00,,0828.3,5.00,0.00,29.3,27.0,00.0,38.0,31.0,24.4,0000.0,0010.20,0005.32,0004.20
2022-07-20 05:13:00,,0828.3,5.00,0.00,29.2,27.2,00.0,38.0,31.0,24.4,0000.0,0010.63,0005.34,0004.21
2022-07-20 05:14:00,,0828.3,5.00,0.00,29.2,27.4,00.0,38.0,31.1,24.3,0000.0,0010.91,0005.30,0004.21
2022-07-20 05:15:00,,0828.3,4.99,0.00,29.2,27.6,00.0,38.0,31.1,24.2,0000.0,0011.22,0005.34,0004.22
2022-07-20 05:16:00,,0828.2,5.01,0.00,29.3,27.7,00.0,38.0,31.2,24.2,0000.0,0011.19,0005.33,0004.23
2022-07-20 05:17:00,,0828.3,5.00,0.00,29.3,27.9,00.0,38.0,31.2,24.1,0000.0,0011.17,0005.38,0004.24
2022-07-20 05:18:00,,0828.3,5.00,0.00,29.3,28.0,00.0,38.0,31.3,23.9,0000.0,0011.24,0005.36,0004.24
2022-07-20 05:19:00,,0828.3,5.00,0.00,29.3,28.2,00.0,38.0,31.3,23.8,0000.0,0011.44,0005.34,0004.24
2022-07-20 05:20:00,,0828.3,5.01,0.00,29.4,28.3,00.0,38.1,31.4,23.8,0000.0,0012.29,0005.29,0004.24
2022-07-20 05:21:00,,0828.3,4.99,0.00,29.4,28.4,00.0,38.1,31.4,23.9,0000.0,0012.35,0005.24,0004.24
2022-07-20 05:22:00,,0828.3,5.00,0.00,29.5,28.4,00.0,38.1,31.5,23.8,0000.0,0012.44,0005.28,0004.25
2022-07-20 05:23:00,,0828.2,5.01,0.00,29.5,27.8,00.0,38.1,31.4,23.9,0000.0,0012.47,0005.29,0004.25
2022-07-20 05:24:00,,0828.2,5.00,0.00,29.4,27.2,00.0,38.0,31.3,23.9,0000.0,0012.07,0005.27,0004.26
2022-07-20 05:25:00,,0828.2,4.99,0.00,29.4,27.0,00.0,38.0,31.2,24.0,0000.0,0012.12,0005.27,0004.26
2022-07-20 05:26:00,,0828.2,5.01,0.00,29.3,27.0,00.0,38.0,31.1,24.1,0000.0,0011.87,0005.22,0004.26
2022-07-20 05:27:00,,0828.2,5.00,0.00,29.3,27.2,00.0,38.0,31.1,24.2,0000.0,0012.55,0005.20,0004.25
2022-07-20 05:28:00,,0828.2,5.00,0.00,29.3,27.4,00.0,38.0,31.1,24.2,0000.0,0012.71,0005.13,0004.25
2022-07-20 05:29:00,,0828.2,5.00,0.00,29.3,27.5,00.0,38.0,31.2,24.2,0000.0,0012.33,0005.07,0004.23
2022-07-20 05:30:00,,0828.2,5.00,0.00,29.3,27.7,00.0,38.0,31.2,24.3,0000.0,0012.24,0005.08,0004.22
2022-07-20 05:31:00,,0828.2,4.99,0.00,29.3,27.9,00.0,38.0,31.3,24.3,0000.0,0011.38,0005.10,0004.20
2022-07-20 05:32:00,,0828.3,4.99,0.00,29.3,28.0,00.0,38.1,31.3,24.2,0000.0,0011.27,0005.14,0004.19
2022-07-20 05:33:00,,0828.2,5.00,0.00,29.4,28.2,00.0,38.1,31.3,24.0,0000.0,0011.26,0005.09,0004.14
2022-07-20 05:34:00,,0828.2,4.99,0.00,29.4,28.3,00.0,38.1,31.4,23.9,0000.0,0011.12,0005.00,0004.08
2022-07-20 05:35:00,,0828.2,5.00,0.00,29.4,28.4,00.0,38.1,31.5,23.8,0000.0,0011.00,0004.92,0004.02
2022-07-20 05:36:00,,0828.2,5.01,0.00,29.5,28.4,00.0,38.1,31.5,23.6,0000.0,0010.52,0004.85,0003.96
2022-07-20 05:37:00,,0828.3,5.00,0.00,29.5,27.7,00.0,38.1,31.4,23.7,0000.0,0010.31,0004.78,0003.90
2022-07-20 05:38:00,,0828.3,5.00,0.00,29.4,27.0,00.0,38.0,31.3,23.6,0000.0,0009.65,0004.73,0003.86
2022-07-20 05:39:00,,0828.3,4.99,0.00,29.4,26.9,00.0,38.0,31.2,23.4,0000.0,0009.25,0004.66,0003.80
2022-07-20 05:40:00,,0828.3,5.01,0.00,29.3,27.0,00.0,38.0,31.1,23.7,0000.0,0009.11,0004.61,0003.74
2022-07-20 05:41:00,,0828.4,5.00,0.00,29.3,27.1,00.0,38.0,31.1,23.6,0000.0,0008.77,0004.50,0003.68
2022-07-20 05:42:00,,0828.5,5.00,0.00,29.3,27.3,00.0,38.0,31.1,23.5,0000.0,0008.26,0004.40,0003.63
2022-07-20 05:43:00,,0828.7,4.99,0.00,29.3,27.5,00.0,38.0,31.2,23.6,0000.0,0008.33,0004.31,0003.56
2022-07-20 05:44:00,,0828.5,5.00,0.00,29.3,27.7,00.0,38.0,31.2,23.8,0000.0,0008.37,0004.23,0003.53
2022-07-20 05:45:00,,0828.5,5.01,0.00,29.3,27.9,00.0,38.0,31.3,24.8,0000.0,0008.47,0004.26,0003.53
2022-07-20 05:46:00,,0828.5,5.00,0.00,29.4,28.0,00.0,38.1,31.3,26.5,0000.0,0008.64,0004.34,0003.57
2022-07-20 05:47:00,,0828.5,5.01,0.00,29.4,28.2,00.0,38.1,31.4,27.1,0000.0,0008.85,0004.43,0003.64
2022-07-20 05:48:00,,0828.5,4.99,0.00,29.4,28.3,00.0,38.1,31.4,26.3,0000.0,0009.04,0004.56,0003.72
2022-07-20 05:49:00,,0828.5,5.01,0.00,29.5,28.4,00.0,38.1,31.5,25.7,0000.0,0009.09,0004.65,0003.77
2022-07-20 05:50:00,,0828.5,4.99,0.00,29.5,28.5,00.0,38.1,31.5,26.0,0000.0,0010.04,0004.78,0003.84
2022-07-20 05:51:00,,0828.5,5.00,0.00,29.5,28.1,00.0,38.1,31.5,26.4,0000.0,0010.52,0004.94,0003.91
2022-07-20 05:52:00,,0828.5,5.00,0.00,29.5,27.2,00.0,38.1,31.4,26.5,0000.0,0010.87,0005.14,0004.00
2022-07-20 05:53:00,,0828.4,5.01,0.00,29.5,26.9,00.0,38.0,31.3,27.0,0000.0,0011.88,0005.30,0004.07
2022-07-20 05:54:00,,0828.4,5.00,0.00,29.4,26.9,00.0,38.0,31.2,26.9,0000.0,0012.32,0005.45,0004.16
2022-07-20 05:55:00,,0828.4,5.02,0.00,29.3,27.1,00.0,38.0,31.1,25.8,0000.0,0012.45,0005.59,0004.23
2022-07-20 05:56:00,,0828.4,5.00,0.00,29.3,27.2,00.0,38.1,31.1,25.7,0000.0,0012.75,0005.63,0004.29
2022-07-20 05:57:00,,0828.5,5.00,0.00,29.3,27.4,00.0,38.1,31.2,26.4,0000.0,0012.72,0005.64,0004.30
2022-07-20 05:58:00,,0828.5,5.00,0.00,29.3,27.6,00.0,38.1,31.2,24.9,0000.0,0012.83,0005.69,0004.28
2022-07-20 05:59:00,,0828.5,5.01,0.00,29.3,27.8,00.0,38.1,31.3,25.1,0000.0,0012.59,0005.58,0004.24
